Location: Gwatt
(46.7204°N, 7.6223°E)
Time: 21:53:44
(UTC+00:00)

Tiros 1 despin weight - Pass Details

Date: 25 January 2021
Orbit: 593 x 642 km, 48.2° (Epoch: 08 March)

Event Time Altitude Azimuth Distance (km) Brightness Sun altitude
Rises 17:11:37 0° 283° (WNW) 2,868 ? -8.6°
Reaches altitude 10° 17:13:56 10° 283° (WNW) 1,955 ? -8.9°
Maximum altitude 17:18:25 86° 13° (NNE) 606 ? -9.7°
Enters shadow 17:22:47 10° 103° (ESE) 1,901 ? -10.4°
